Location: Castiglione Fibocchi
(43.5333°N, 11.7667°E)
Time: 14:20:37
(UTC+00:00)

Landsat 5 - Pass Details

Date: 15 August 2020
Orbit: 529 x 654 km, 98.2° (Epoch: 24 September)

Event Time Altitude Azimuth Distance (km) Brightness Sun altitude
Rises 02:49:02 0° 165° (SSE) 2,712 6.6 -15.0°
Reaches altitude 10° 02:51:06 10° 165° (SSE) 1,839 5.8 -14.7°
Maximum altitude 02:55:06 90° 70° (ENE) 580 3.4 -14.1°
Drops below altitude 10° 02:59:16 10° 347° (NNW) 1,928 6.4 -13.5°
Sets 03:01:29 0° 347° (NNW) 2,856 7.3 -13.2°
